Simultaneous Nadir Overpasses (SNOs) Predictions

Prediction of SNOs between GOES-15 and NOAA-20 Satellite Orbit:

Table of predicted SNOs for the next 14.0 days since TLE Epoch: 4/23/2022
Index Date Time (GOES-15) GOES-15 Lat,Lon NOAA-20 Lat,Lon Distance(km) Time Diff (sec)
1 04/23/2022 10:08:33 0.12,-128.28 0.56,-130.33 232.46 80
2 04/24/2022 09:47:08 0.13,-128.27 -0.44,-125.79 282.29 80
3 04/25/2022 22:09:05 -0.12,-128.27 -0.79,-131.09 321.88 80
4 04/26/2022 21:53:01 -0.13,-128.25 0.27,-126.56 193.21 80
5 04/28/2022 10:14:50 0.12,-128.21 0.91,-131.83 412.58 80
6 04/29/2022 09:56:05 0.13,-128.19 -0.09,-127.30 102.06 80
7 05/01/2022 21:59:17 -0.12,-128.16 -0.13,-128.06 11.85 80
8 05/04/2022 09:59:41 0.11,-128.09 0.30,-128.79 80.88 80
9 05/05/2022 09:43:36 0.12,-128.06 -0.71,-124.25 433.03 80
10 05/06/2022 22:02:54 -0.11,-128.04 -0.44,-129.56 173.78 80
